Change the Weather History Date:

Tuesday, October 22, 2013

  Actual Average (KAUS) Record (KAUS)
Temperature  
Mean Temperature 62 °F 67 °F  
Max Temperature 72 °F 81 °F 92 °F (2003)
Min Temperature 51 °F 54 °F 41 °F (1999)
Degree Days  
Heating Degree Days 3 2  
Month to date heating degree days 25  
Since 1 July heating degree days 27  
Cooling Degree Days 0 4  
Month to date cooling degree days 143  
Year to date cooling degree days 2671  
Growing Degree Days 12 (Base 50)    
Moisture  
Dew Point 48 °F    
Average Humidity 64    
Maximum Humidity 88    
Minimum Humidity 30    
Precipitation  
Precipitation 0.07 in 0.16 in 1.78 in (1972)
Month to date precipitation 2.75  
Year to date precipitation 28.39  
Snow  
Snow 0.00 in - - ()
Month to date snowfall  
Since 1 July snowfall  
Since 1 September snowfall  
Snow Depth -    
Sea Level Pressure  
Sea Level Pressure 30.13 in    
Wind  
Wind Speed 7 mph (North)    
Max Wind Speed 12 mph    
Max Gust Speed 18 mph    
Visibility 10 miles    
Events      
T = Trace of Precipitation, MM = Missing Value Source: NWS Daily Summary

Daily Weather History Graph

Daily Weather History Graph

Search for Another Location

Airport or City:

Trip Planner

Search our weather history database for the weather conditions in past years. The results will help you decide how hot, cold, wet, or windy it might be!

Date:

Astronomy

Oct. 22, 2013 Rise Set
Actual Time 7:34 AM CDT 6:49 PM CDT
Civil Twilight 7:10 AM CDT 7:13 PM CDT
Nautical Twilight 6:42 AM CDT 7:41 PM CDT
Astronomical Twilight 6:14 AM CDT 8:09 PM CDT
Moon 9:41 PM CDT (10/22) 10:53 AM CDT (10/22)
Length of Visible Light 12h 03m
Length of Day
11h 14m
Waning Gibbous, 86% of the Moon is Illuminated
Oct 22
Waning Gibbous
Oct 26
Last Quarter
Nov 3
New
Nov 9
First Quarter
Nov 17
Full

Hourly Weather History & Observations

Time (CDT) Temp. Dew Point Humidity Pressure Visibility Wind Dir Wind Speed Gust Speed Precip Events Conditions
12:15 AM 63.7 °F 56.5 °F 77% 30.08 in 10.0 mi North 8.1 mph - N/A   Scattered Clouds
12:35 AM 63.0 °F 56.3 °F 79% 30.08 in 10.0 mi North 9.2 mph - N/A   Scattered Clouds
12:55 AM 62.6 °F 55.6 °F 78% 30.08 in 10.0 mi NNW 8.1 mph - N/A   Scattered Clouds
1:15 AM 61.9 °F 55.6 °F 80% 30.09 in 10.0 mi North 3.5 mph - N/A   Clear
1:35 AM 61.3 °F 55.6 °F 81% 30.09 in 10.0 mi North 6.9 mph - N/A   Mostly Cloudy
1:55 AM 61.3 °F 55.6 °F 81% 30.10 in 10.0 mi North 6.9 mph - N/A   Overcast
2:15 AM 61.7 °F 55.2 °F 79% 30.10 in 10.0 mi North 6.9 mph - N/A   Overcast
2:35 AM 61.7 °F 54.9 °F 78% 30.10 in 10.0 mi North 5.8 mph - N/A   Overcast
2:55 AM 61.2 °F 54.5 °F 79% 30.10 in 10.0 mi North 6.9 mph - N/A   Mostly Cloudy
3:15 AM 61.2 °F 54.5 °F 79% 30.10 in 10.0 mi North 10.4 mph 16.1 mph N/A   Mostly Cloudy
3:35 AM 61.0 °F 54.1 °F 78% 30.10 in 10.0 mi North 9.2 mph - N/A   Mostly Cloudy
3:55 AM 60.6 °F 53.8 °F 78% 30.10 in 10.0 mi North 8.1 mph 17.3 mph N/A   Mostly Cloudy
4:15 AM 60.1 °F 53.4 °F 79% 30.10 in 10.0 mi North 11.5 mph 18.4 mph N/A   Scattered Clouds
4:35 AM 59.9 °F 53.4 °F 79% 30.10 in 10.0 mi North 6.9 mph - N/A   Scattered Clouds
4:55 AM 59.0 °F 53.8 °F 83% 30.10 in 10.0 mi North 10.4 mph - N/A   Clear
5:15 AM 59.0 °F 53.6 °F 82% 30.10 in 10.0 mi North 9.2 mph - N/A   Mostly Cloudy
5:35 AM 58.5 °F 53.2 °F 83% 30.10 in 10.0 mi North 6.9 mph - N/A   Scattered Clouds
5:55 AM 58.3 °F 53.1 °F 83% 30.12 in 10.0 mi North 11.5 mph 16.1 mph N/A   Mostly Cloudy
6:15 AM 56.8 °F 51.8 °F 83% 30.12 in 10.0 mi NNW 10.4 mph 18.4 mph N/A   Mostly Cloudy
6:35 AM 56.3 °F 51.3 °F 83% 30.13 in 10.0 mi North 9.2 mph - N/A   Mostly Cloudy
6:55 AM 55.8 °F 50.9 °F 84% 30.14 in 10.0 mi North 9.2 mph - N/A   Overcast
7:15 AM 54.9 °F 50.0 °F 84% 30.14 in 10.0 mi North 8.1 mph - N/A   Scattered Clouds
7:35 AM 54.3 °F 50.0 °F 85% 30.14 in 10.0 mi North 6.9 mph - N/A   Scattered Clouds
7:55 AM 53.8 °F 48.7 °F 83% 30.15 in 10.0 mi North 6.9 mph - N/A   Clear
8:15 AM 54.1 °F 48.4 °F 81% 30.16 in 10.0 mi North 10.4 mph - N/A   Clear
8:35 AM 54.0 °F 47.8 °F 80% 30.17 in 10.0 mi North 9.2 mph 16.1 mph N/A   Scattered Clouds
8:55 AM 55.2 °F 48.2 °F 77% 30.17 in 10.0 mi North 10.4 mph 16.1 mph N/A   Scattered Clouds
9:15 AM 55.9 °F 48.4 °F 76% 30.18 in 10.0 mi North 6.9 mph - N/A   Clear
9:35 AM 57.2 °F 48.6 °F 73% 30.18 in 10.0 mi North 8.1 mph - N/A   Clear
9:55 AM 58.1 °F 48.6 °F 71% 30.18 in 10.0 mi North 8.1 mph - N/A   Clear
10:15 AM 59.4 °F 48.6 °F 67% 30.18 in 10.0 mi North 5.8 mph 16.1 mph N/A   Clear
10:35 AM 60.6 °F 48.6 °F 64% 30.18 in 10.0 mi North 6.9 mph - N/A   Clear
10:55 AM 62.4 °F 48.4 °F 60% 30.18 in 10.0 mi North 6.9 mph - N/A   Clear
11:15 AM 63.5 °F 46.9 °F 55% 30.18 in 10.0 mi North 8.1 mph - N/A   Clear
11:35 AM 64.4 °F 46.6 °F 52% 30.18 in 10.0 mi North 8.1 mph - N/A   Clear
11:55 AM 65.5 °F 45.7 °F 49% 30.19 in 10.0 mi North 6.9 mph - N/A   Clear
12:15 PM 66.7 °F 45.3 °F 46% 30.19 in 10.0 mi NNE 8.1 mph - N/A   Clear
12:35 PM 67.1 °F 43.7 °F 43% 30.18 in 10.0 mi North 6.9 mph 16.1 mph N/A   Clear
12:55 PM 67.8 °F 41.5 °F 38% 30.18 in 10.0 mi North 8.1 mph - N/A   Clear
1:15 PM 68.5 °F 40.1 °F 35% 30.17 in 10.0 mi North 9.2 mph - N/A   Clear
1:35 PM 69.6 °F 40.5 °F 35% 30.16 in 10.0 mi NNE 6.9 mph - N/A   Clear
1:55 PM 70.3 °F 41.2 °F 35% 30.15 in 10.0 mi North 9.2 mph - N/A   Clear
2:15 PM 70.9 °F 40.6 °F 33% 30.14 in 10.0 mi North 10.4 mph - N/A   Clear
2:35 PM 71.2 °F 39.9 °F 32% 30.13 in 10.0 mi North 9.2 mph - N/A   Clear
2:55 PM 71.6 °F 40.1 °F 32% 30.12 in 10.0 mi NNE 11.5 mph 17.3 mph N/A   Clear
3:15 PM 72.1 °F 41.2 °F 33% 30.12 in 10.0 mi North 6.9 mph - N/A   Clear
3:35 PM 72.5 °F 39.4 °F 30% 30.12 in 10.0 mi North 9.2 mph - N/A   Clear
3:55 PM 72.0 °F 40.1 °F 32% 30.12 in 10.0 mi NNE 8.1 mph - N/A   Clear
4:15 PM 72.5 °F 40.5 °F 31% 30.12 in 10.0 mi North 8.1 mph - N/A   Clear
4:35 PM 72.0 °F 40.3 °F 32% 30.12 in 10.0 mi North 6.9 mph - N/A   Clear
4:55 PM 72.0 °F 40.1 °F 32% 30.12 in 10.0 mi North 6.9 mph - N/A   Clear
5:15 PM 72.0 °F 41.0 °F 33% 30.12 in 10.0 mi North 6.9 mph - N/A   Clear
5:35 PM 71.4 °F 41.0 °F 33% 30.12 in 10.0 mi North 6.9 mph - N/A   Clear
5:55 PM 70.7 °F 40.8 °F 34% 30.12 in 10.0 mi North 5.8 mph - N/A   Clear
6:15 PM 69.6 °F 41.7 °F 36% 30.12 in 10.0 mi North 3.5 mph - N/A   Clear
6:35 PM 68.2 °F 42.6 °F 40% 30.12 in 10.0 mi North 3.5 mph - N/A   Clear
6:55 PM 66.6 °F 43.3 °F 43% 30.12 in 10.0 mi Calm Calm - N/A   Clear
7:15 PM 62.6 °F 48.9 °F 61% 30.13 in 10.0 mi Calm Calm - N/A   Clear
7:35 PM 59.4 °F 48.6 °F 67% 30.13 in 10.0 mi Calm Calm - N/A   Clear
7:55 PM 60.1 °F 48.9 °F 67% 30.13 in 10.0 mi Calm Calm - N/A   Clear
8:15 PM 57.7 °F 48.4 °F 71% 30.14 in 10.0 mi Calm Calm - N/A   Clear
8:35 PM 55.9 °F 48.9 °F 77% 30.14 in 10.0 mi Calm Calm - N/A   Clear
8:55 PM 55.8 °F 48.4 °F 76% 30.14 in 10.0 mi Calm Calm - N/A   Clear
9:35 PM 55.2 °F 48.7 °F 79% 30.14 in 10.0 mi Calm Calm - N/A   Clear
9:55 PM 54.9 °F 48.6 °F 79% 30.14 in 10.0 mi Calm Calm - N/A   Clear
10:15 PM 54.0 °F 48.4 °F 81% 30.15 in 10.0 mi Calm Calm - N/A   Clear
10:35 PM 54.3 °F 47.7 °F 78% 30.15 in 10.0 mi Calm Calm - N/A   Clear
10:55 PM 53.8 °F 47.8 °F 80% 30.15 in 10.0 mi Calm Calm - N/A   Clear
11:15 PM 52.3 °F 47.7 °F 84% 30.15 in 10.0 mi Calm Calm - N/A   Clear
11:35 PM 52.2 °F 47.8 °F 85% 30.15 in 10.0 mi Calm Calm - N/A   Clear
11:55 PM 51.8 °F 48.2 °F 88% 30.15 in 10.0 mi Calm Calm - N/A   Clear